Total_Precipitation_Accumulation
4.57 4.87 4.87 4.97 4.74 5.04 5.46 5.72 5.20 5.19 4.97 4.70 4.35 3.99 3.94 3.66 3.37 3.29 3.41 3.41 3.19 3.16 3.47 3.70 3.58 3.56 3.63 3.39 3.17 2.90 2.72 2.74 2.54 2.21 1.97 1.94 1.90 1.79 1.73 1.61 1.56 1.43 1.35
3.95 4.18 4.23 4.36 4.24 4.45 4.73 4.79 4.70 5.07 5.06 4.86 4.36 3.98 3.81 3.80 3.62 3.36 3.54 3.58 3.47 3.17 3.27 3.74 4.06 4.11 4.20 4.04 3.75 3.40 3.07 2.85 2.65 2.36 2.16 2.09 1.98 1.94 1.98 1.98 2.02 1.73 1.55
3.60 3.65 3.75 3.86 3.96 3.93 4.10 4.20 4.28 4.58 4.72 4.68 4.40 4.02 3.87 3.90 3.75 3.63 3.47 3.55 3.44 3.43 3.38 3.56 3.90 4.01 4.33 4.57 4.48 4.00 3.60 3.22 2.78 2.35 2.09 2.05 2.04 1.89 1.82 1.88 1.97 1.82 1.70
2.98 3.10 3.07 3.09 3.33 3.44 3.64 3.97 4.08 4.41 4.70 4.79 4.75 4.29 4.14 4.12 3.84 3.83 3.64 3.60 3.82 3.48 3.70 3.88 3.87 3.84 4.28 4.79 5.10 5.02 4.54 3.77 3.06 2.60 2.33 2.20 2.13 2.03 1.94 1.91 1.89 1.82 1.65
2.80 2.88 3.01 3.11 2.86 3.05 3.31 3.22 3.79 4.14 4.53 4.63 4.16 4.22 4.02 3.94 3.98 3.68 3.70 3.57 3.74 3.75 3.89 3.91 3.98 3.85 4.28 5.20 5.87 6.17 5.65 4.70 3.89 3.31 3.04 2.85 2.60 2.26 2.09 2.07 2.01 1.90 1.75
2.93 3.02 2.90 2.72 2.51 2.81 3.22 3.41 3.96 4.07 4.05 4.09 3.53 3.85 3.74 3.45 3.61 3.75 3.55 3.67 3.69 3.36 3.64 3.97 4.20 3.75 4.18 4.92 5.57 6.08 6.33 5.92 5.09 4.38 3.97 3.69 3.44 2.93 2.40 2.18 2.14 2.06 1.89
3.11 3.22 2.89 3.04 2.67 2.74 2.91 3.07 3.49 3.75 3.68 3.65 4.02 4.20 3.82 3.39 3.43 3.32 3.19 3.48 3.49 3.44 3.85 4.30 4.40 4.22 3.81 3.68 3.90 4.70 5.78 6.49 6.38 5.55 4.92 4.41 4.04 3.48 2.85 2.52 2.29 2.16 2.10
3.05 2.85 3.00 2.77 2.72 2.97 3.01 3.16 3.48 3.61 3.53 3.62 3.90 4.37 4.14 4.10 3.56 2.81 3.03 3.17 3.24 3.51 3.48 3.58 3.99 4.32 3.94 3.95 3.11 3.23 4.30 5.33 6.28 6.30 5.55 4.74 4.39 4.07 3.60 3.17 2.81 2.52 2.42
2.74 2.83 2.79 2.86 3.05 2.75 3.06 3.28 3.29 3.56 3.65 3.52 3.52 4.04 4.10 4.04 3.55 2.91 2.77 2.82 3.05 3.43 3.42 3.50 3.30 3.60 3.85 4.18 3.84 3.11 3.19 3.56 4.71 5.94 6.02 5.24 4.49 3.92 3.71 3.66 3.48 3.11 2.89
2.64 2.64 2.78 3.12 3.28 3.00 3.29 2.82 2.99 3.38 3.61 3.52 3.56 3.34 3.22 3.38 3.61 3.48 3.02 2.77 2.87 2.98 3.10 3.08 3.20 3.58 3.78 4.05 3.97 3.04 2.41 2.49 3.30 4.66 5.60 5.51 4.87 4.09 3.72 3.82 4.20 4.17 3.66
3.07 2.73 2.75 3.06 3.25 3.25 3.37 3.18 3.40 3.17 3.12 3.15 3.28 3.30 3.27 3.17 2.94 3.17 3.20 3.03 2.90 2.59 2.54 2.61 2.80 3.06 3.14 3.47 3.77 2.96 2.47 2.41 2.58 3.19 3.88 4.38 4.49 4.30 4.06 4.20 4.86 5.31 5.21
3.05 2.79 2.81 3.20 3.24 3.24 3.37 3.22 3.22 3.09 3.11 3.13 3.03 2.95 3.24 3.25 3.06 3.18 2.92 2.87 2.82 2.34 2.19 2.24 2.32 2.48 2.70 2.93 2.85 2.69 2.71 2.70 2.51 2.48 2.58 2.84 3.29 3.67 4.03 4.33 4.77 5.31 5.66
2.66 2.75 2.87 3.22 3.17 3.16 3.10 3.17 3.14 3.15 3.23 3.27 3.14 2.94 2.94 2.97 3.02 3.08 3.06 2.68 2.52 2.24 2.24 2.11 2.07 2.35 2.55 3.06 3.23 3.00 2.83 2.95 2.56 2.26 2.20 2.20 2.30 2.59 2.96 3.42 4.03 4.65 5.21
2.64 2.72 2.83 2.77 2.76 2.86 2.75 3.10 2.93 2.91 3.02 3.07 2.90 3.30 3.18 2.77 2.94 3.06 3.25 3.47 3.17 2.81 2.69 2.50 2.39 2.58 2.86 3.13 3.47 3.30 2.78 2.65 2.31 2.14 2.04 2.05 2.07 2.07 2.14 2.32 2.65 3.12 3.55
2.59 2.69 2.68 2.75 2.78 2.77 2.80 3.05 2.92 2.96 3.16 2.97 2.97 3.43 3.21 2.82 2.82 2.91 3.17 3.57 3.83 3.38 2.97 2.86 2.86 2.92 3.04 3.09 3.28 2.98 2.69 2.60 2.31 2.08 1.99 1.99 2.05 2.00 1.90 1.86 1.93 2.12 2.30
2.44 2.58 2.64 2.75 2.80 2.74 2.83 3.01 2.82 3.01 3.09 2.99 3.01 3.13 3.05 2.79 2.85 2.94 3.15 3.42 3.76 3.69 3.17 2.83 3.04 3.09 2.99 2.75 3.08 2.94 2.66 2.57 2.25 2.03 1.85 1.79 1.85 1.95 2.00 1.94 1.87 1.92 1.97
2.51 2.62 2.74 2.81 2.81 2.81 2.94 3.02 2.82 2.98 2.94 3.04 2.95 2.91 2.87 3.09 3.15 2.98 3.15 3.31 3.59 3.85 3.55 3.03 3.12 3.13 3.08 2.91 2.87 2.74 2.58 2.51 2.28 2.23 1.97 1.84 1.76 1.75 1.80 1.86 1.91 1.95 1.94
2.61 2.74 2.86 2.94 2.80 2.86 3.01 2.91 2.87 2.92 2.96 2.91 3.01 3.23 3.12 3.32 3.35 3.27 3.44 3.46 3.58 3.88 3.77 3.41 3.25 3.28 3.17 3.04 2.98 2.72 2.34 2.20 2.17 2.36 2.15 1.98 1.85 1.80 1.76 1.79 1.80 1.74 1.71
2.77 2.76 2.73 2.77 2.90 3.10 3.11 2.91 2.89 2.87 2.75 2.64 2.80 3.09 3.37 3.85 3.70 3.53 3.41 3.31 3.36 3.47 3.73 3.44 3.14 3.33 3.15 3.03 3.02 2.65 2.37 2.31 1.95 2.03 2.06 1.90 1.74 1.62 1.55 1.57 1.64 1.65 1.57
2.76 2.81 2.87 2.86 2.91 2.93 2.92 2.96 3.03 2.98 2.87 2.69 2.68 2.79 2.96 3.28 3.45 3.59 3.36 3.26 3.38 3.48 3.60 3.49 3.36 3.54 3.60 3.43 3.22 2.83 2.65 2.50 2.19 1.86 1.92 1.81 1.69 1.59 1.51 1.45 1.46 1.51 1.58
2.83 3.03 3.08 3.05 3.00 2.91 2.69 2.96 3.15 3.01 3.05 2.92 2.79 2.70 2.52 2.67 2.89 3.09 2.90 3.22 3.45 3.40 3.44 3.48 3.57 3.91 3.89 3.71 3.18 2.91 2.80 2.68 2.37 2.01 1.98 1.74 1.64 1.51 1.47 1.51 1.47 1.46 1.49
3.36 3.39 3.21 3.15 3.06 2.77 2.97 3.06 3.07 3.06 3.16 3.09 2.99 2.91 2.69 2.49 2.48 2.64 2.71 2.91 3.15 3.18 3.24 3.40 3.47 3.62 3.66 3.63 3.44 3.16 2.90 2.73 2.43 2.13 2.15 1.99 1.78 1.69 1.55 1.46 1.57 1.58 1.56
3.42 3.41 3.45 3.38 3.22 3.32 3.36 3.04 2.99 2.96 3.01 2.99 3.20 3.32 2.82 2.36 2.61 2.55 2.64 2.63 2.49 2.61 2.82 3.04 3.17 3.17 3.51 3.67 3.76 3.32 3.11 2.89 2.51 2.34 2.42 2.20 2.08 1.89 1.64 1.58 1.72 1.55 1.52
3.30 3.24 3.19 3.14 3.07 3.05 3.19 2.93 2.88 2.73 2.70 2.72 2.79 2.86 2.84 2.62 2.55 2.62 2.58 2.38 2.14 2.12 2.29 2.34 2.39 2.65 3.03 3.56 3.91 3.65 3.53 3.31 2.93 2.58 2.43 2.26 2.07 1.94 1.72 1.64 1.71 1.56 1.45
3.16 3.11 3.08 3.11 2.98 2.93 3.06 2.83 2.81 2.56 2.48 2.41 2.40 2.38 2.38 2.22 2.33 2.43 2.38 2.25 2.11 1.98 2.01 2.09 2.02 2.15 2.48 2.88 3.40 3.67 3.42 3.11 2.76 2.43 2.32 2.20 1.97 2.05 2.00 1.85 1.73 1.77 1.58
3.29 3.28 3.23 3.22 3.10 3.01 3.15 2.90 2.77 2.51 2.44 2.43 2.51 2.46 2.39 2.21 2.21 2.18 2.09 2.10 1.92 1.80 1.92 1.89 1.79 1.80 1.94 2.30 2.84 3.02 3.14 3.02 2.69 2.41 2.10 2.16 2.06 2.21 2.23 1.93 1.77 1.75 1.67